Year,Month,Day,Hour,Minute,Value (Times are PST for windspeed in km/hr)
2015,08,28,00,00,13.30
2015,08,28,00,01,15.50
2015,08,28,00,02,13.90
2015,08,28,00,03,5.50
2015,08,28,00,04,5.60
2015,08,28,00,05,13.00
2015,08,28,00,06,17.90
2015,08,28,00,07,15.80
2015,08,28,00,08,8.20
2015,08,28,00,09,5.10
2015,08,28,00,10,4.60
2015,08,28,00,11,5.40
2015,08,28,00,12,7.40
2015,08,28,00,13,7.40
2015,08,28,00,14,8.40
2015,08,28,00,15,9.90
2015,08,28,00,16,4.80
2015,08,28,00,17,2.90
2015,08,28,00,18,6.00
2015,08,28,00,19,9.60
2015,08,28,00,20,7.60
2015,08,28,00,21,6.60
2015,08,28,00,22,8.40
2015,08,28,00,23,8.90
2015,08,28,00,24,5.70
2015,08,28,00,25,8.70
2015,08,28,00,26,9.70
2015,08,28,00,27,12.80
2015,08,28,00,28,15.60
2015,08,28,00,29,14.70
2015,08,28,00,30,9.70
2015,08,28,00,31,10.80
2015,08,28,00,32,7.70
2015,08,28,00,33,7.80
2015,08,28,00,34,5.30
2015,08,28,00,35,3.70
2015,08,28,00,36,2.30
2015,08,28,00,37,6.10
2015,08,28,00,38,4.20
2015,08,28,00,39,4.60
2015,08,28,00,40,4.90
2015,08,28,00,41,3.80
2015,08,28,00,42,5.50
2015,08,28,00,43,4.10
2015,08,28,00,44,4.70
2015,08,28,00,45,5.30
2015,08,28,00,46,6.10
2015,08,28,00,47,4.40
2015,08,28,00,48,0.50
2015,08,28,00,49,0.60
2015,08,28,00,50,0.50
2015,08,28,00,51,0.00
2015,08,28,00,52,0.90
2015,08,28,00,53,0.00
2015,08,28,00,54,0.00
2015,08,28,00,55,0.10
2015,08,28,00,56,3.50
2015,08,28,00,57,7.10
2015,08,28,00,58,4.90
2015,08,28,00,59,1.10
2015,08,28,01,00,0.00
2015,08,28,01,01,0.00
2015,08,28,01,02,0.20
2015,08,28,01,03,3.10
2015,08,28,01,04,3.20
2015,08,28,01,05,0.30
2015,08,28,01,06,0.00
2015,08,28,01,07,1.20
2015,08,28,01,08,0.30
2015,08,28,01,09,2.10
2015,08,28,01,10,3.30
2015,08,28,01,11,3.50
2015,08,28,01,12,4.50
2015,08,28,01,13,5.10
2015,08,28,01,14,3.30
2015,08,28,01,15,2.60
2015,08,28,01,16,3.20
2015,08,28,01,17,1.20
2015,08,28,01,18,1.50
2015,08,28,01,19,1.60
2015,08,28,01,20,0.30
2015,08,28,01,21,0.60
2015,08,28,01,22,0.10
2015,08,28,01,23,1.50
2015,08,28,01,24,2.90
2015,08,28,01,25,1.40
2015,08,28,01,26,0.90
2015,08,28,01,27,0.60
2015,08,28,01,28,4.10
2015,08,28,01,29,6.70
2015,08,28,01,30,6.00
2015,08,28,01,31,1.80
2015,08,28,01,32,0.00
2015,08,28,01,33,0.20
2015,08,28,01,34,3.40
2015,08,28,01,35,3.60
2015,08,28,01,36,1.20
2015,08,28,01,37,3.30
2015,08,28,01,38,3.40
2015,08,28,01,39,2.90
2015,08,28,01,40,1.70
2015,08,28,01,41,0.10
2015,08,28,01,42,0.10
2015,08,28,01,43,2.30
2015,08,28,01,44,1.50
2015,08,28,01,45,2.40
2015,08,28,01,46,2.40
2015,08,28,01,47,2.60
2015,08,28,01,48,2.50
2015,08,28,01,49,3.10
2015,08,28,01,50,2.30
2015,08,28,01,51,0.30
2015,08,28,01,52,0.10
2015,08,28,01,53,0.00
2015,08,28,01,54,0.00
2015,08,28,01,55,0.00
2015,08,28,01,56,0.00
2015,08,28,01,57,0.00
2015,08,28,01,58,0.10
2015,08,28,01,59,0.10
2015,08,28,02,00,0.00
2015,08,28,02,01,0.00
2015,08,28,02,02,2.60
2015,08,28,02,03,1.50
2015,08,28,02,04,0.10
2015,08,28,02,05,0.00
2015,08,28,02,06,0.00
2015,08,28,02,07,0.70
2015,08,28,02,08,0.70
2015,08,28,02,09,1.50
2015,08,28,02,10,0.30
2015,08,28,02,11,2.80
2015,08,28,02,12,2.30
2015,08,28,02,13,1.80
2015,08,28,02,14,1.90
2015,08,28,02,15,0.30
2015,08,28,02,16,0.00
2015,08,28,02,17,0.80
2015,08,28,02,18,3.20
2015,08,28,02,19,3.10
2015,08,28,02,20,0.30
2015,08,28,02,21,0.20
2015,08,28,02,22,0.00
2015,08,28,02,23,0.00
2015,08,28,02,24,2.50
2015,08,28,02,25,2.40
2015,08,28,02,26,2.70
2015,08,28,02,27,2.80
2015,08,28,02,28,1.50
2015,08,28,02,29,0.40
2015,08,28,02,30,0.00
2015,08,28,02,31,0.00
2015,08,28,02,32,0.00
2015,08,28,02,33,0.10
2015,08,28,02,34,0.10
2015,08,28,02,35,0.50
2015,08,28,02,36,2.40
2015,08,28,02,37,0.00
2015,08,28,02,38,2.50
2015,08,28,02,39,3.20
2015,08,28,02,40,2.80
2015,08,28,02,41,2.90
2015,08,28,02,42,1.10
2015,08,28,02,43,0.20
2015,08,28,02,44,0.00
2015,08,28,02,45,0.00
2015,08,28,02,46,0.00
2015,08,28,02,47,0.20
2015,08,28,02,48,0.20
2015,08,28,02,49,2.40
2015,08,28,02,50,0.20
2015,08,28,02,51,0.00
2015,08,28,02,52,0.00
2015,08,28,02,53,1.60
2015,08,28,02,54,0.40
2015,08,28,02,55,0.10
2015,08,28,02,56,0.00
2015,08,28,02,57,0.10
2015,08,28,02,58,0.50
2015,08,28,02,59,0.10
2015,08,28,03,00,0.00
2015,08,28,03,01,1.10
2015,08,28,03,02,2.00
2015,08,28,03,03,0.60
2015,08,28,03,04,1.10
2015,08,28,03,05,2.20
2015,08,28,03,06,0.00
2015,08,28,03,07,0.00
2015,08,28,03,08,0.10
2015,08,28,03,09,0.20
2015,08,28,03,10,0.90
2015,08,28,03,11,2.90
2015,08,28,03,12,1.80
2015,08,28,03,13,1.10
2015,08,28,03,14,1.20
2015,08,28,03,15,0.10
2015,08,28,03,16,0.00
2015,08,28,03,17,0.00
2015,08,28,03,18,0.00
2015,08,28,03,19,0.00
2015,08,28,03,20,0.00
2015,08,28,03,21,0.00
2015,08,28,03,22,0.10
2015,08,28,03,23,0.10
2015,08,28,03,24,0.00
2015,08,28,03,25,0.00
2015,08,28,03,26,0.00
2015,08,28,03,27,0.10
2015,08,28,03,28,0.40
2015,08,28,03,29,0.00
2015,08,28,03,30,0.00
2015,08,28,03,31,0.00
2015,08,28,03,32,0.00
2015,08,28,03,33,0.00
2015,08,28,03,34,0.00
2015,08,28,03,35,0.10
2015,08,28,03,36,0.00
2015,08,28,03,37,0.10
2015,08,28,03,38,0.20
2015,08,28,03,39,1.60
2015,08,28,03,40,1.70
2015,08,28,03,41,2.20
2015,08,28,03,42,3.50
2015,08,28,03,43,5.00
2015,08,28,03,44,3.80
2015,08,28,03,45,3.40
2015,08,28,03,46,3.20
2015,08,28,03,47,2.60
2015,08,28,03,48,4.90
2015,08,28,03,49,4.20
2015,08,28,03,50,4.10
2015,08,28,03,51,4.40
2015,08,28,03,52,3.50
2015,08,28,03,53,3.10
2015,08,28,03,54,3.40
2015,08,28,03,55,2.80
2015,08,28,03,56,4.10
2015,08,28,03,57,3.70
2015,08,28,03,58,4.00
2015,08,28,03,59,4.70
2015,08,28,04,00,3.70
2015,08,28,04,01,6.70
2015,08,28,04,02,7.50
2015,08,28,04,03,5.40
2015,08,28,04,04,5.80
2015,08,28,04,05,7.70
2015,08,28,04,06,5.70
2015,08,28,04,07,4.70
2015,08,28,04,08,3.90
2015,08,28,04,09,4.00
2015,08,28,04,10,1.10
2015,08,28,04,11,0.00
2015,08,28,04,12,0.00
2015,08,28,04,13,1.90
2015,08,28,04,14,2.70
2015,08,28,04,15,2.60
2015,08,28,04,16,3.50
2015,08,28,04,17,3.90
2015,08,28,04,18,1.10
2015,08,28,04,19,2.90
2015,08,28,04,20,4.70
2015,08,28,04,21,5.50
2015,08,28,04,22,5.30
2015,08,28,04,23,2.70
2015,08,28,04,24,3.80
2015,08,28,04,25,4.30
2015,08,28,04,26,4.10
2015,08,28,04,27,2.00
2015,08,28,04,28,3.50
2015,08,28,04,29,5.30
2015,08,28,04,30,10.10
2015,08,28,04,31,11.30
2015,08,28,04,32,7.80
2015,08,28,04,33,7.20
2015,08,28,04,34,6.80
2015,08,28,04,35,6.80
2015,08,28,04,36,7.70
2015,08,28,04,37,6.40
2015,08,28,04,38,9.70
2015,08,28,04,39,9.60
2015,08,28,04,40,13.80
2015,08,28,04,41,9.40
2015,08,28,04,42,12.80
2015,08,28,04,43,12.60
2015,08,28,04,44,9.90
2015,08,28,04,45,8.70
2015,08,28,04,46,10.70
2015,08,28,04,47,13.30
2015,08,28,04,48,10.30
2015,08,28,04,49,12.30
2015,08,28,04,50,12.00
2015,08,28,04,51,10.20
2015,08,28,04,52,10.90
2015,08,28,04,53,13.60
2015,08,28,04,54,12.20
2015,08,28,04,55,12.00
2015,08,28,04,56,11.10
2015,08,28,04,57,11.90
2015,08,28,04,58,11.80
2015,08,28,04,59,11.90
2015,08,28,05,00,9.30
2015,08,28,05,01,7.10
2015,08,28,05,02,12.00
2015,08,28,05,03,11.60
2015,08,28,05,04,9.70
2015,08,28,05,05,8.10
2015,08,28,05,06,6.00
2015,08,28,05,07,7.10
2015,08,28,05,08,7.50
2015,08,28,05,09,9.50
2015,08,28,05,10,10.00
2015,08,28,05,11,11.30
2015,08,28,05,12,12.30
2015,08,28,05,13,7.40
2015,08,28,05,14,9.30
2015,08,28,05,15,8.60
2015,08,28,05,16,8.10
2015,08,28,05,17,8.80
2015,08,28,05,18,11.30
2015,08,28,05,19,10.30
2015,08,28,05,20,7.40
2015,08,28,05,21,8.70
2015,08,28,05,22,4.00
2015,08,28,05,23,4.50
2015,08,28,05,24,6.10
2015,08,28,05,25,4.10
2015,08,28,05,26,10.00
2015,08,28,05,27,6.30
2015,08,28,05,28,6.70
2015,08,28,05,29,7.70
2015,08,28,05,30,6.00
2015,08,28,05,31,6.70
2015,08,28,05,32,3.10
2015,08,28,05,33,3.60
2015,08,28,05,34,3.80
2015,08,28,05,35,5.30
2015,08,28,05,36,3.70
2015,08,28,05,37,0.50
2015,08,28,05,38,0.10
2015,08,28,05,39,0.00
2015,08,28,05,40,0.60
2015,08,28,05,41,0.00
2015,08,28,05,42,0.00
2015,08,28,05,43,0.00
2015,08,28,05,44,0.00
2015,08,28,05,45,0.00
2015,08,28,05,46,0.00
2015,08,28,05,47,0.00
2015,08,28,05,48,0.00
2015,08,28,05,49,0.00
2015,08,28,05,50,0.20
2015,08,28,05,51,2.20
2015,08,28,05,52,4.00
2015,08,28,05,53,3.10
2015,08,28,05,54,2.30
2015,08,28,05,55,2.80
2015,08,28,05,56,2.00
2015,08,28,05,57,2.40
2015,08,28,05,58,0.00
2015,08,28,05,59,0.00
2015,08,28,06,00,0.00
2015,08,28,06,01,3.40
2015,08,28,06,02,5.10
2015,08,28,06,03,3.90
2015,08,28,06,04,3.30
2015,08,28,06,05,1.30
2015,08,28,06,06,1.80
2015,08,28,06,07,4.40
2015,08,28,06,08,5.90
2015,08,28,06,09,5.10
2015,08,28,06,10,3.40
2015,08,28,06,11,1.00
2015,08,28,06,12,1.80
2015,08,28,06,13,3.80
2015,08,28,06,14,3.70
2015,08,28,06,15,2.00
2015,08,28,06,16,0.00
2015,08,28,06,17,1.00
2015,08,28,06,18,3.30
2015,08,28,06,19,2.10
2015,08,28,06,20,1.40
2015,08,28,06,21,3.10
2015,08,28,06,22,2.50
2015,08,28,06,23,3.40
2015,08,28,06,24,4.30
2015,08,28,06,25,4.30
2015,08,28,06,26,5.10
2015,08,28,06,27,5.10
2015,08,28,06,28,4.40
2015,08,28,06,29,3.40
2015,08,28,06,30,0.80
2015,08,28,06,31,0.00
2015,08,28,06,32,0.00
2015,08,28,06,33,0.00
2015,08,28,06,34,0.00
2015,08,28,06,35,0.00
2015,08,28,06,36,0.00
2015,08,28,06,37,0.00
2015,08,28,06,38,1.40
2015,08,28,06,39,4.10
2015,08,28,06,40,2.50
2015,08,28,06,41,0.20
2015,08,28,06,42,0.00
2015,08,28,06,43,0.10
2015,08,28,06,44,2.10
2015,08,28,06,45,0.30
2015,08,28,06,46,0.40
2015,08,28,06,47,0.00
2015,08,28,06,48,0.00
2015,08,28,06,49,1.20
2015,08,28,06,50,3.40
2015,08,28,06,51,3.40
2015,08,28,06,52,1.10
2015,08,28,06,53,0.00
2015,08,28,06,54,0.10
2015,08,28,06,55,2.40
2015,08,28,06,56,4.70
2015,08,28,06,57,4.80
2015,08,28,06,58,3.10
2015,08,28,06,59,1.10
2015,08,28,07,00,1.90
2015,08,28,07,01,1.80
2015,08,28,07,02,2.00
2015,08,28,07,03,2.80
2015,08,28,07,04,5.40
2015,08,28,07,05,3.30
2015,08,28,07,06,3.40
2015,08,28,07,07,3.00
2015,08,28,07,08,4.80
2015,08,28,07,09,5.10
2015,08,28,07,10,5.20
2015,08,28,07,11,3.20
2015,08,28,07,12,4.50
2015,08,28,07,13,6.50
2015,08,28,07,14,4.40
2015,08,28,07,15,2.70
2015,08,28,07,16,3.20
2015,08,28,07,17,0.40
2015,08,28,07,18,0.00
2015,08,28,07,19,0.50
2015,08,28,07,20,0.20
2015,08,28,07,21,1.30
2015,08,28,07,22,0.00
2015,08,28,07,23,0.00
2015,08,28,07,24,0.20
2015,08,28,07,25,1.20
2015,08,28,07,26,0.20
2015,08,28,07,27,2.90
2015,08,28,07,28,4.10
2015,08,28,07,29,3.40
2015,08,28,07,30,4.20
2015,08,28,07,31,4.10
2015,08,28,07,32,3.60
2015,08,28,07,33,3.80
2015,08,28,07,34,3.10
2015,08,28,07,35,4.10
2015,08,28,07,36,3.30
2015,08,28,07,37,1.80
2015,08,28,07,38,0.30
2015,08,28,07,39,0.00
2015,08,28,07,40,0.00
2015,08,28,07,41,0.00
2015,08,28,07,42,0.10
2015,08,28,07,43,0.00
2015,08,28,07,44,0.50
2015,08,28,07,45,2.00
2015,08,28,07,46,2.70
2015,08,28,07,47,4.90
2015,08,28,07,48,4.80
2015,08,28,07,49,2.80
2015,08,28,07,50,0.60
2015,08,28,07,51,1.20
2015,08,28,07,52,2.30
2015,08,28,07,53,2.60
2015,08,28,07,54,5.10
2015,08,28,07,55,2.30
2015,08,28,07,56,1.20
2015,08,28,07,57,2.30
2015,08,28,07,58,1.20
2015,08,28,07,59,3.10
2015,08,28,08,00,1.80
2015,08,28,08,01,3.80
2015,08,28,08,02,5.10
2015,08,28,08,03,3.80
2015,08,28,08,04,0.50
2015,08,28,08,05,0.00
2015,08,28,08,06,2.00
2015,08,28,08,07,0.50
2015,08,28,08,08,0.00
2015,08,28,08,09,0.10
2015,08,28,08,10,0.00
2015,08,28,08,11,0.20
2015,08,28,08,12,1.80
2015,08,28,08,13,0.50
2015,08,28,08,14,3.80
2015,08,28,08,15,5.30
2015,08,28,08,16,3.10
2015,08,28,08,17,4.60
2015,08,28,08,18,2.20
2015,08,28,08,19,1.20
2015,08,28,08,20,2.50
2015,08,28,08,21,4.10
2015,08,28,08,22,2.40
2015,08,28,08,23,2.20
2015,08,28,08,24,6.20
2015,08,28,08,25,5.90
2015,08,28,08,26,4.30
2015,08,28,08,27,4.00
2015,08,28,08,28,4.20
2015,08,28,08,29,6.10
2015,08,28,08,30,6.80
2015,08,28,08,31,5.80
2015,08,28,08,32,3.70
2015,08,28,08,33,6.00
2015,08,28,08,34,6.10
2015,08,28,08,35,5.10
2015,08,28,08,36,5.60
2015,08,28,08,37,6.10
2015,08,28,08,38,1.80
2015,08,28,08,39,4.10
2015,08,28,08,40,5.30
2015,08,28,08,41,6.40
2015,08,28,08,42,5.30
2015,08,28,08,43,5.60
2015,08,28,08,44,11.10
2015,08,28,08,45,6.70
2015,08,28,08,46,9.20
2015,08,28,08,47,8.50
2015,08,28,08,48,11.60
2015,08,28,08,49,12.30
2015,08,28,08,50,10.20
2015,08,28,08,51,8.00
2015,08,28,08,52,8.70
2015,08,28,08,53,11.70
2015,08,28,08,54,6.80
2015,08,28,08,55,7.70
2015,08,28,08,56,7.20
2015,08,28,08,57,9.40
2015,08,28,08,58,12.00
2015,08,28,08,59,10.10
2015,08,28,09,00,9.80
2015,08,28,09,01,9.90
2015,08,28,09,02,10.00
2015,08,28,09,03,13.90
2015,08,28,09,04,12.30
2015,08,28,09,05,8.10
2015,08,28,09,06,7.10
2015,08,28,09,07,8.00
2015,08,28,09,08,13.90
2015,08,28,09,09,8.40
2015,08,28,09,10,12.10
2015,08,28,09,11,11.30
2015,08,28,09,12,10.40
2015,08,28,09,13,9.70
2015,08,28,09,14,11.30
2015,08,28,09,15,8.20
2015,08,28,09,16,5.70
2015,08,28,09,17,8.20
2015,08,28,09,18,5.40
2015,08,28,09,19,6.90
2015,08,28,09,20,13.60
2015,08,28,09,21,11.10
2015,08,28,09,22,11.20
2015,08,28,09,23,14.60
2015,08,28,09,24,9.90
2015,08,28,09,25,12.90
2015,08,28,09,26,7.70
2015,08,28,09,27,10.00
2015,08,28,09,28,7.20
2015,08,28,09,29,5.10
2015,08,28,09,30,10.80
2015,08,28,09,31,13.80
2015,08,28,09,32,11.80
2015,08,28,09,33,11.30
2015,08,28,09,34,6.20
2015,08,28,09,35,10.70
2015,08,28,09,36,7.20
2015,08,28,09,37,7.20
2015,08,28,09,38,12.40
2015,08,28,09,39,6.60
2015,08,28,09,40,6.40
2015,08,28,09,41,9.20
2015,08,28,09,42,10.90
2015,08,28,09,43,6.90
2015,08,28,09,44,6.20
2015,08,28,09,45,6.40
2015,08,28,09,46,8.30
2015,08,28,09,47,5.70
2015,08,28,09,48,7.90
2015,08,28,09,49,4.40
2015,08,28,09,50,5.00
2015,08,28,09,51,3.50
2015,08,28,09,52,0.80
2015,08,28,09,53,0.10
2015,08,28,09,54,1.10
2015,08,28,09,55,1.30
2015,08,28,09,56,0.50
2015,08,28,09,57,0.50
2015,08,28,09,58,3.40
2015,08,28,09,59,4.80
2015,08,28,10,00,1.10
2015,08,28,10,01,0.20
2015,08,28,10,02,8.00
2015,08,28,10,03,9.70
2015,08,28,10,04,9.50
2015,08,28,10,05,11.30
2015,08,28,10,06,14.60
2015,08,28,10,07,12.20
2015,08,28,10,08,14.60
2015,08,28,10,09,14.10
2015,08,28,10,10,13.30
2015,08,28,10,11,12.60
2015,08,28,10,12,11.00
2015,08,28,10,13,8.40
2015,08,28,10,14,11.40
2015,08,28,10,15,10.70
2015,08,28,10,16,9.40
2015,08,28,10,17,10.20
2015,08,28,10,18,8.90
2015,08,28,10,19,12.20
2015,08,28,10,20,13.80
2015,08,28,10,21,14.60
2015,08,28,10,22,13.50
2015,08,28,10,23,8.70
2015,08,28,10,24,10.00
2015,08,28,10,25,9.90
2015,08,28,10,26,9.70
2015,08,28,10,27,9.00
2015,08,28,10,28,7.60
2015,08,28,10,29,7.50
2015,08,28,10,30,12.30
2015,08,28,10,31,5.60
2015,08,28,10,32,5.10
2015,08,28,10,33,9.00
2015,08,28,10,34,8.80
2015,08,28,10,35,10.80
2015,08,28,10,36,9.20
2015,08,28,10,37,6.40
2015,08,28,10,38,9.00
2015,08,28,10,39,7.50
2015,08,28,10,40,7.40
2015,08,28,10,41,6.10
2015,08,28,10,42,6.10
2015,08,28,10,43,7.70
2015,08,28,10,44,4.80
2015,08,28,10,45,5.30
2015,08,28,10,46,4.40
2015,08,28,10,47,5.90
2015,08,28,10,48,6.40
2015,08,28,10,49,8.10
2015,08,28,10,50,7.80
2015,08,28,10,51,8.60
2015,08,28,10,52,7.60
2015,08,28,10,53,11.10
2015,08,28,10,54,8.40
2015,08,28,10,55,7.40
2015,08,28,10,56,7.70
2015,08,28,10,57,8.70
2015,08,28,10,58,6.50
2015,08,28,10,59,9.30
2015,08,28,11,00,11.70
2015,08,28,11,01,14.10
2015,08,28,11,02,13.10
2015,08,28,11,03,12.30
2015,08,28,11,04,10.90
2015,08,28,11,05,15.30
2015,08,28,11,06,12.40
2015,08,28,11,07,8.90
2015,08,28,11,08,11.30
2015,08,28,11,09,12.00
2015,08,28,11,10,11.80
2015,08,28,11,11,5.30
2015,08,28,11,12,7.00
2015,08,28,11,13,5.70
2015,08,28,11,14,5.40
2015,08,28,11,15,9.40
2015,08,28,11,16,8.50
2015,08,28,11,17,7.60
2015,08,28,11,18,9.60
2015,08,28,11,19,10.10
2015,08,28,11,20,11.00
2015,08,28,11,21,10.60
2015,08,28,11,22,9.70
2015,08,28,11,23,6.70
2015,08,28,11,24,7.70
2015,08,28,11,25,6.90
2015,08,28,11,26,3.80
2015,08,28,11,27,8.90
2015,08,28,11,28,10.90
2015,08,28,11,29,8.80
2015,08,28,11,30,14.10
2015,08,28,11,31,12.60
2015,08,28,11,32,10.90
2015,08,28,11,33,13.00
2015,08,28,11,34,10.70
2015,08,28,11,35,12.90
2015,08,28,11,36,13.20
2015,08,28,11,37,10.30
2015,08,28,11,38,10.90
2015,08,28,11,39,11.70
2015,08,28,11,40,14.40
2015,08,28,11,41,10.10
2015,08,28,11,42,5.70
2015,08,28,11,43,5.50
2015,08,28,11,44,2.30
2015,08,28,11,45,0.30
2015,08,28,11,46,7.00
2015,08,28,11,47,4.70
2015,08,28,11,48,6.40
2015,08,28,11,49,7.10
2015,08,28,11,50,6.40
2015,08,28,11,51,9.70
2015,08,28,11,52,8.40
2015,08,28,11,53,12.00
2015,08,28,11,54,11.80
2015,08,28,11,55,10.10
2015,08,28,11,56,10.70
2015,08,28,11,57,9.40
2015,08,28,11,58,9.30
2015,08,28,11,59,7.30
2015,08,28,12,00,6.90
2015,08,28,12,01,8.10
2015,08,28,12,02,9.00
2015,08,28,12,03,6.20
2015,08,28,12,04,5.10
2015,08,28,12,05,6.20
2015,08,28,12,06,5.70
2015,08,28,12,07,6.40
2015,08,28,12,08,14.50
2015,08,28,12,09,18.00
2015,08,28,12,10,14.00
2015,08,28,12,11,9.60
2015,08,28,12,12,13.40
2015,08,28,12,13,10.30
2015,08,28,12,14,11.90
2015,08,28,12,15,11.20
2015,08,28,12,16,11.30
2015,08,28,12,17,6.70
2015,08,28,12,18,5.10
2015,08,28,12,19,4.40
2015,08,28,12,20,6.60
2015,08,28,12,21,9.50
2015,08,28,12,22,13.30
2015,08,28,12,23,9.40
2015,08,28,12,24,14.20
2015,08,28,12,25,15.60
2015,08,28,12,26,11.30
2015,08,28,12,27,12.30
2015,08,28,12,28,11.80
2015,08,28,12,29,6.30
2015,08,28,12,30,5.40
2015,08,28,12,31,8.10
2015,08,28,12,32,2.80
2015,08,28,12,33,4.90
2015,08,28,12,34,11.00
2015,08,28,12,35,8.00
2015,08,28,12,36,6.60
2015,08,28,12,37,5.40
2015,08,28,12,38,7.00
2015,08,28,12,39,9.00
2015,08,28,12,40,7.50
2015,08,28,12,41,8.70
2015,08,28,12,42,12.30
2015,08,28,12,43,11.40
2015,08,28,12,44,10.40
2015,08,28,12,45,12.90
2015,08,28,12,46,12.20
2015,08,28,12,47,12.80
2015,08,28,12,48,12.60
2015,08,28,12,49,9.70
2015,08,28,12,50,11.30
2015,08,28,12,51,11.80
2015,08,28,12,52,9.30
2015,08,28,12,53,4.50
2015,08,28,12,54,9.70
2015,08,28,12,55,11.30
2015,08,28,12,56,8.20
2015,08,28,12,57,7.00
2015,08,28,12,58,6.20
2015,08,28,12,59,9.40
2015,08,28,13,00,9.80
2015,08,28,13,01,7.00
2015,08,28,13,02,6.40
2015,08,28,13,03,4.10
2015,08,28,13,04,7.40
2015,08,28,13,05,6.70
2015,08,28,13,06,7.70
2015,08,28,13,07,6.50
2015,08,28,13,08,3.80
2015,08,28,13,09,4.70
2015,08,28,13,10,4.10
2015,08,28,13,11,3.40
2015,08,28,13,12,2.60
2015,08,28,13,13,6.70
2015,08,28,13,14,8.90
2015,08,28,13,15,4.80
2015,08,28,13,16,2.10
2015,08,28,13,17,4.10
2015,08,28,13,18,9.80
2015,08,28,13,19,11.80
2015,08,28,13,20,9.90
2015,08,28,13,21,11.20
2015,08,28,13,22,12.00
2015,08,28,13,23,6.90
2015,08,28,13,24,11.10
2015,08,28,13,25,8.10
2015,08,28,13,26,7.60
2015,08,28,13,27,10.00
2015,08,28,13,28,11.30
2015,08,28,13,29,10.70
2015,08,28,13,30,14.50
2015,08,28,13,31,15.30
2015,08,28,13,32,13.40
2015,08,28,13,33,11.90
2015,08,28,13,34,12.20
2015,08,28,13,35,11.50
2015,08,28,13,36,10.60
2015,08,28,13,37,12.00
2015,08,28,13,38,15.90
2015,08,28,13,39,10.40
2015,08,28,13,40,15.60
2015,08,28,13,41,13.80
2015,08,28,13,42,11.40
2015,08,28,13,43,11.90
2015,08,28,13,44,11.30
2015,08,28,13,45,13.10
2015,08,28,13,46,13.00
2015,08,28,13,47,12.90
2015,08,28,13,48,13.60
2015,08,28,13,49,13.40
2015,08,28,13,50,13.00
2015,08,28,13,51,10.10
2015,08,28,13,52,6.50
2015,08,28,13,53,10.00
2015,08,28,13,54,11.40
2015,08,28,13,55,16.60
2015,08,28,13,56,16.20
2015,08,28,13,57,19.00
2015,08,28,13,58,17.90
2015,08,28,13,59,16.70
2015,08,28,14,00,13.10
2015,08,28,14,01,13.00
2015,08,28,14,02,11.60
2015,08,28,14,03,20.00
2015,08,28,14,04,21.00
2015,08,28,14,05,16.80
2015,08,28,14,06,13.70
2015,08,28,14,07,14.00
2015,08,28,14,08,13.60
2015,08,28,14,09,10.60
2015,08,28,14,10,11.70
2015,08,28,14,11,13.90
2015,08,28,14,12,17.70
2015,08,28,14,13,18.70
2015,08,28,14,14,19.50
2015,08,28,14,15,16.90
2015,08,28,14,16,16.50
2015,08,28,14,17,15.90
2015,08,28,14,18,15.10
2015,08,28,14,19,17.60
2015,08,28,14,20,13.40
2015,08,28,14,21,11.50
2015,08,28,14,22,11.20
2015,08,28,14,23,13.10
2015,08,28,14,24,11.50
2015,08,28,14,25,13.10
2015,08,28,14,26,17.70
2015,08,28,14,27,18.50
2015,08,28,14,28,13.60
2015,08,28,14,29,15.70
2015,08,28,14,30,15.60
2015,08,28,14,31,14.30
2015,08,28,14,32,16.20
2015,08,28,14,33,17.20
2015,08,28,14,34,16.70
2015,08,28,14,35,15.60
2015,08,28,14,36,14.30
2015,08,28,14,37,16.90
2015,08,28,14,38,15.90
2015,08,28,14,39,17.70
2015,08,28,14,40,17.50
2015,08,28,14,41,15.30
2015,08,28,14,42,14.20
2015,08,28,14,43,14.70
2015,08,28,14,44,17.00
2015,08,28,14,45,14.70
2015,08,28,14,46,17.60
2015,08,28,14,47,15.90
2015,08,28,14,48,13.80
2015,08,28,14,49,13.50
2015,08,28,14,50,14.00
2015,08,28,14,51,17.30
2015,08,28,14,52,15.60
2015,08,28,14,53,16.30
2015,08,28,14,54,13.10
2015,08,28,14,55,13.40
2015,08,28,14,56,8.80
2015,08,28,14,57,10.00
2015,08,28,14,58,15.60
2015,08,28,14,59,17.20
2015,08,28,15,00,16.80
2015,08,28,15,01,16.10
2015,08,28,15,02,18.20
2015,08,28,15,03,17.50
2015,08,28,15,04,17.70
2015,08,28,15,05,20.20
2015,08,28,15,06,16.60
2015,08,28,15,07,14.90
2015,08,28,15,08,17.60
2015,08,28,15,09,17.20
2015,08,28,15,10,14.30
2015,08,28,15,11,14.60
2015,08,28,15,12,17.40
2015,08,28,15,13,17.80
2015,08,28,15,14,18.60
2015,08,28,15,15,16.60
2015,08,28,15,16,17.20
2015,08,28,15,17,15.20
2015,08,28,15,18,15.40
2015,08,28,15,19,12.60
2015,08,28,15,20,14.50
2015,08,28,15,21,12.10
2015,08,28,15,22,16.90
2015,08,28,15,23,16.30
2015,08,28,15,24,16.90
2015,08,28,15,25,13.10
2015,08,28,15,26,14.30
2015,08,28,15,27,12.60
2015,08,28,15,28,11.70
2015,08,28,15,29,11.30
2015,08,28,15,30,17.20
2015,08,28,15,31,16.00
2015,08,28,15,32,15.90
2015,08,28,15,33,18.10
2015,08,28,15,34,18.50
2015,08,28,15,35,19.20
2015,08,28,15,36,14.20
2015,08,28,15,37,12.00
2015,08,28,15,38,17.20
2015,08,28,15,39,19.30
2015,08,28,15,40,15.60
2015,08,28,15,41,14.60
2015,08,28,15,42,16.00
2015,08,28,15,43,16.80
2015,08,28,15,44,16.60
2015,08,28,15,45,16.60
2015,08,28,15,46,15.50
2015,08,28,15,47,20.20
2015,08,28,15,48,22.30
2015,08,28,15,49,14.70
2015,08,28,15,50,19.60
2015,08,28,15,51,18.80
2015,08,28,15,52,17.70
2015,08,28,15,53,16.10
2015,08,28,15,54,17.10
2015,08,28,15,55,20.40
2015,08,28,15,56,22.80
2015,08,28,15,57,19.80
2015,08,28,15,58,19.90
2015,08,28,15,59,18.30
2015,08,28,16,00,13.70
2015,08,28,16,01,19.00
2015,08,28,16,02,17.70
2015,08,28,16,03,18.30
2015,08,28,16,04,13.80
2015,08,28,16,05,21.20
2015,08,28,16,06,17.90
2015,08,28,16,07,18.70
2015,08,28,16,08,17.10
2015,08,28,16,09,15.30
2015,08,28,16,10,18.80
2015,08,28,16,11,14.70
2015,08,28,16,12,14.30
2015,08,28,16,13,16.80
2015,08,28,16,14,19.20
2015,08,28,16,15,17.60
2015,08,28,16,16,15.00
2015,08,28,16,17,19.70
2015,08,28,16,18,14.40
2015,08,28,16,19,20.30
2015,08,28,16,20,18.90
2015,08,28,16,21,20.30
2015,08,28,16,22,21.10
2015,08,28,16,23,17.60
2015,08,28,16,24,17.20
2015,08,28,16,25,16.50
2015,08,28,16,26,17.20
2015,08,28,16,27,14.90
2015,08,28,16,28,15.60
2015,08,28,16,29,16.70
2015,08,28,16,30,13.20
2015,08,28,16,31,11.80
2015,08,28,16,32,14.90
2015,08,28,16,33,16.90
2015,08,28,16,34,15.90
2015,08,28,16,35,15.30
2015,08,28,16,36,15.00
2015,08,28,16,37,13.20
2015,08,28,16,38,13.10
2015,08,28,16,39,11.70
2015,08,28,16,40,12.30
2015,08,28,16,41,15.20
2015,08,28,16,42,9.70
2015,08,28,16,43,12.10
2015,08,28,16,44,15.20
2015,08,28,16,45,13.00
2015,08,28,16,46,8.90
2015,08,28,16,47,9.90
2015,08,28,16,48,13.70
2015,08,28,16,49,12.60
2015,08,28,16,50,12.20
2015,08,28,16,51,12.10
2015,08,28,16,52,12.90
2015,08,28,16,53,17.40
2015,08,28,16,54,14.30
2015,08,28,16,55,15.60
2015,08,28,16,56,17.70
2015,08,28,16,57,15.00
2015,08,28,16,58,12.00
2015,08,28,16,59,12.60
2015,08,28,17,00,12.30
2015,08,28,17,01,12.70
2015,08,28,17,02,12.30
2015,08,28,17,03,12.20
2015,08,28,17,04,13.90
2015,08,28,17,05,12.40
2015,08,28,17,06,12.20
2015,08,28,17,07,11.60
2015,08,28,17,08,12.70
2015,08,28,17,09,14.40
2015,08,28,17,10,13.30
2015,08,28,17,11,13.30
2015,08,28,17,12,12.80
2015,08,28,17,13,11.00
2015,08,28,17,14,13.40
2015,08,28,17,15,13.60
2015,08,28,17,16,15.60
2015,08,28,17,17,11.70
2015,08,28,17,18,13.50
2015,08,28,17,19,15.50
2015,08,28,17,20,15.10
2015,08,28,17,21,13.60
2015,08,28,17,22,13.60
2015,08,28,17,23,16.10
2015,08,28,17,24,10.90
2015,08,28,17,25,14.40
2015,08,28,17,26,16.60
2015,08,28,17,27,15.00
2015,08,28,17,28,11.50
2015,08,28,17,29,13.00
2015,08,28,17,30,10.60
2015,08,28,17,31,8.30
2015,08,28,17,32,14.80
2015,08,28,17,33,14.30
2015,08,28,17,34,12.20
2015,08,28,17,35,12.60
2015,08,28,17,36,11.60
2015,08,28,17,37,13.30
2015,08,28,17,38,13.00
2015,08,28,17,39,12.10
2015,08,28,17,40,10.90
2015,08,28,17,41,11.30
2015,08,28,17,42,11.30
2015,08,28,17,43,12.90
2015,08,28,17,44,14.10
2015,08,28,17,45,13.00
2015,08,28,17,46,14.30
2015,08,28,17,47,15.00
2015,08,28,17,48,13.30